Location: Unspecified
(43.4680°N, 87.1740°E)
Time: 11:27:09
(UTC+00:00)

COSMOS 2487 - Pass Details

Date: 17 April 2021
Orbit: 432 x 434 km, 74.7° (Epoch: 15 May)

Event Time Altitude Azimuth Distance (km) Brightness Sun altitude
Rises 13:22:48 0° 169° (SSE) 2,401 5.8 -5.3°
Reaches altitude 10° 13:25:08 10° 153° (SSE) 1,539 4.7 -5.7°
Maximum altitude 13:27:48 22° 101° (E) 1,008 3.6 -6.2°
Drops below altitude 10° 13:30:30 10° 48° (NE) 1,551 4.9 -6.6°
Sets 13:32:52 0° 33° (NNE) 2,426 6.0 -7.0°
